MBU9012 LHBP-EDDN

Flight info

Callsign MBU9012
Flight time 1h 4m
Altitude 30000
Route GILEP DCT ZOLKU DCT ARSIN DCT SUBEN T161 AKINI/N0340F240 Z109 UPALA UPALA1V
Aircraft A20N/M-SDE2E3FGHIRWXY/LB1

Departure

Time 2026-05-07 17:10
Airport Budapest Liszt Ferenc International Airport (LHBP)

Arrival

Time 2026-05-07 18:15
Airport Nuremberg Airport (EDDN)
Time Latitude Longitude Altitude Speed Heading
2026-05-07 16:20 47.43160 19.23699 436 ft 0 kts 26°
2026-05-07 17:01 47.43147 19.23688 436 ft 2 kts 33°
2026-05-07 17:02 47.43135 19.23678 436 ft 1 kts
2026-05-07 17:02 47.43122 19.23680 436 ft 1 kts 330°
2026-05-07 17:02 47.43113 19.23694 436 ft 1 kts 291°
2026-05-07 17:02 47.43111 19.23706 436 ft 0 kts 271°
2026-05-07 17:03 47.43111 19.23708 436 ft 0 kts 271°
2026-05-07 17:05 47.43111 19.23706 436 ft 0 kts 272°
2026-05-07 17:05 47.43116 19.23694 436 ft 2 kts 299°
2026-05-07 17:05 47.43128 19.23660 436 ft 4 kts 298°
2026-05-07 17:05 47.43148 19.23607 436 ft 6 kts 298°
2026-05-07 17:06 47.43182 19.23549 436 ft 8 kts 348°
2026-05-07 17:06 47.43245 19.23579 436 ft 10 kts 26°
2026-05-07 17:06 47.43282 19.23663 436 ft 12 kts 111°
2026-05-07 17:06 47.43243 19.23781 436 ft 13 kts 116°
2026-05-07 17:07 47.43200 19.23914 434 ft 15 kts 116°
2026-05-07 17:07 47.43147 19.24073 433 ft 17 kts 116°
2026-05-07 17:07 47.43090 19.24242 432 ft 18 kts 116°
2026-05-07 17:07 47.43034 19.24414 433 ft 19 kts 116°
2026-05-07 17:08 47.42975 19.24589 434 ft 18 kts 117°
2026-05-07 17:08 47.42927 19.24736 436 ft 11 kts 115°
2026-05-07 17:08 47.42916 19.24818 439 ft 4 kts 45°
2026-05-07 17:08 47.42935 19.24844 440 ft 2 kts 41°
2026-05-07 17:09 47.42959 19.24874 442 ft 7 kts 40°
2026-05-07 17:09 47.43016 19.24943 445 ft 13 kts 33°
2026-05-07 17:09 47.43115 19.24912 447 ft 21 kts 314°
2026-05-07 17:09 47.43374 19.24494 436 ft 103 kts 312°
2026-05-07 17:10 47.44044 19.23441 647 ft 164 kts 312°
2026-05-07 17:10 47.44864 19.22170 1408 ft 183 kts 311°
2026-05-07 17:10 47.45735 19.20757 2366 ft 197 kts 309°
2026-05-07 17:10 47.46653 19.19203 3341 ft 207 kts 308°
2026-05-07 17:11 47.47617 19.17558 4108 ft 229 kts 309°
2026-05-07 17:11 47.48533 19.15560 4911 ft 247 kts 285°
2026-05-07 17:11 47.48550 19.12986 5799 ft 264 kts 255°
2026-05-07 17:11 47.47939 19.10388 6874 ft 276 kts 249°
2026-05-07 17:12 47.46998 19.07990 8130 ft 278 kts 223°
2026-05-07 17:12 47.45339 19.06642 9272 ft 285 kts 203°
2026-05-07 17:12 47.43463 19.05521 10327 ft 294 kts 203°
2026-05-07 17:12 47.41559 19.04415 11425 ft 300 kts 202°
2026-05-07 17:13 47.39713 19.02990 12177 ft 315 kts 221°
2026-05-07 17:13 47.38397 19.00324 12898 ft 331 kts 248°
2026-05-07 17:13 47.38042 18.96975 13698 ft 347 kts 273°
2026-05-07 17:13 47.38588 18.93476 14735 ft 353 kts 282°
2026-05-07 17:14 47.39169 18.90108 15598 ft 335 kts 280°
2026-05-07 17:14 47.39691 18.86767 16265 ft 333 kts 278°
2026-05-07 17:14 47.40178 18.83421 17070 ft 340 kts 278°
2026-05-07 17:14 47.40680 18.80052 18112 ft 342 kts 278°
2026-05-07 17:15 47.41180 18.76663 19073 ft 345 kts 277°
2026-05-07 17:15 47.41688 18.73159 19994 ft 350 kts 277°
2026-05-07 17:15 47.42184 18.69693 20869 ft 354 kts 277°
2026-05-07 17:15 47.42695 18.66126 21760 ft 358 kts 277°
2026-05-07 17:16 47.43208 18.62518 22618 ft 363 kts 277°
2026-05-07 17:16 47.43722 18.58894 23463 ft 367 kts 276°
2026-05-07 17:16 47.44247 18.55198 24490 ft 367 kts 276°
2026-05-07 17:16 47.44758 18.51592 25604 ft 363 kts 276°
2026-05-07 17:17 47.45261 18.47972 26658 ft 358 kts 274°
2026-05-07 17:17 47.45589 18.44378 27619 ft 353 kts 270°
2026-05-07 17:17 47.45832 18.40836 28555 ft 350 kts 269°
2026-05-07 17:17 47.46069 18.37270 29356 ft 351 kts 269°
2026-05-07 17:18 47.46308 18.33714 29834 ft 353 kts 269°
2026-05-07 17:18 47.46556 18.30105 29963 ft 356 kts 269°
2026-05-07 17:18 47.47071 18.22814 29965 ft 355 kts 269°
2026-05-07 17:19 47.47584 18.15588 29969 ft 356 kts 269°
2026-05-07 17:19 47.48098 18.08327 29969 ft 356 kts 269°
2026-05-07 17:20 47.48607 18.01096 29966 ft 355 kts 269°
2026-05-07 17:20 47.49111 17.93871 29971 ft 354 kts 269°
2026-05-07 17:21 47.49609 17.86680 29973 ft 354 kts 269°
2026-05-07 17:21 47.50105 17.79443 29983 ft 354 kts 269°
2026-05-07 17:22 47.50597 17.72218 29976 ft 353 kts 269°
2026-05-07 17:22 47.51080 17.65029 29975 ft 352 kts 269°
2026-05-07 17:23 47.51556 17.57867 29978 ft 352 kts 269°
2026-05-07 17:23 47.52029 17.50701 29968 ft 352 kts 269°
2026-05-07 17:24 47.52499 17.43528 29966 ft 352 kts 269°
2026-05-07 17:24 47.52966 17.36301 29966 ft 353 kts 269°
2026-05-07 17:25 47.53424 17.29129 29968 ft 352 kts 268°
2026-05-07 17:25 47.53882 17.21955 29961 ft 351 kts 268°
2026-05-07 17:26 47.54333 17.14780 29965 ft 351 kts 268°
2026-05-07 17:26 47.54777 17.07628 29975 ft 350 kts 268°
2026-05-07 17:27 47.55217 17.00481 29955 ft 350 kts 269°
2026-05-07 17:27 47.55652 16.93345 29949 ft 351 kts 268°
2026-05-07 17:28 47.56082 16.86181 29949 ft 352 kts 268°
2026-05-07 17:28 47.56598 16.78941 29962 ft 356 kts 272°
2026-05-07 17:29 47.57776 16.71779 29949 ft 363 kts 281°
2026-05-07 17:29 47.59577 16.64868 29948 ft 358 kts 284°
2026-05-07 17:30 47.61428 16.58088 29954 ft 356 kts 284°
2026-05-07 17:30 47.63283 16.51262 29958 ft 356 kts 284°
2026-05-07 17:31 47.65116 16.44481 29961 ft 358 kts 285°
2026-05-07 17:31 47.66960 16.37637 29971 ft 360 kts 285°
2026-05-07 17:32 47.68823 16.30719 29967 ft 362 kts 284°
2026-05-07 17:32 47.70686 16.23768 29973 ft 363 kts 284°
2026-05-07 17:33 47.72547 16.16811 29969 ft 364 kts 284°
2026-05-07 17:33 47.74413 16.09814 29968 ft 365 kts 284°
2026-05-07 17:34 47.76263 16.02848 29966 ft 366 kts 285°
2026-05-07 17:34 47.78135 15.95787 29987 ft 365 kts 285°
2026-05-07 17:35 47.79982 15.88800 29981 ft 367 kts 285°
2026-05-07 17:35 47.81834 15.81761 29984 ft 368 kts 285°
2026-05-07 17:36 47.83693 15.74690 29970 ft 366 kts 285°
2026-05-07 17:36 47.85524 15.67708 29972 ft 364 kts 285°
2026-05-07 17:37 47.87357 15.60677 29985 ft 364 kts 285°
2026-05-07 17:37 47.89182 15.53657 29964 ft 363 kts 285°
2026-05-07 17:38 47.91008 15.46625 29975 ft 363 kts 285°
2026-05-07 17:38 47.92813 15.39641 29973 ft 364 kts 285°
2026-05-07 17:39 47.94629 15.32598 29995 ft 363 kts 285°
2026-05-07 17:39 47.96440 15.25552 29995 ft 364 kts 285°
2026-05-07 17:40 47.98239 15.18533 29995 ft 364 kts 285°
2026-05-07 17:40 48.00045 15.11462 29987 ft 364 kts 285°
2026-05-07 17:41 48.01846 15.04401 29983 ft 363 kts 285°
2026-05-07 17:41 48.03630 14.97368 29988 ft 362 kts 285°
2026-05-07 17:42 48.05434 14.90235 29990 ft 367 kts 285°
2026-05-07 17:42 48.07222 14.83147 29989 ft 367 kts 285°
2026-05-07 17:43 48.09011 14.76036 30001 ft 365 kts 286°
2026-05-07 17:43 48.10818 14.68809 30009 ft 385 kts 286°
2026-05-07 17:44 48.12714 14.61207 30010 ft 391 kts 287°
2026-05-07 17:44 48.14599 14.53660 30011 ft 389 kts 287°
2026-05-07 17:45 48.16480 14.46093 30009 ft 387 kts 287°
2026-05-07 17:45 48.18348 14.38545 30011 ft 386 kts 287°
2026-05-07 17:46 48.20203 14.31020 30018 ft 385 kts 287°
2026-05-07 17:46 48.22041 14.23538 30020 ft 383 kts 287°
2026-05-07 17:47 48.23867 14.16085 30023 ft 383 kts 287°
2026-05-07 17:47 48.25700 14.08573 30016 ft 382 kts 287°
2026-05-07 17:48 48.27515 14.01110 30017 ft 382 kts 287°
2026-05-07 17:48 48.29321 13.93658 30017 ft 381 kts 287°
2026-05-07 17:49 48.31119 13.86216 30033 ft 380 kts 288°
2026-05-07 17:49 48.32916 13.78760 30016 ft 380 kts 288°
2026-05-07 17:50 48.34713 13.71326 30014 ft 380 kts 290°
2026-05-07 17:50 48.37175 13.64264 30017 ft 381 kts 297°
2026-05-07 17:51 48.39765 13.57357 30020 ft 380 kts 297°
2026-05-07 17:51 48.42319 13.50413 30022 ft 378 kts 297°
2026-05-07 17:52 48.44831 13.43506 30021 ft 377 kts 297°
2026-05-07 17:52 48.47343 13.36554 30021 ft 377 kts 297°
2026-05-07 17:53 48.49866 13.29540 30023 ft 377 kts 296°
2026-05-07 17:53 48.52353 13.22609 30021 ft 376 kts 297°
2026-05-07 17:54 48.54820 13.15711 30017 ft 376 kts 297°
2026-05-07 17:54 48.57303 13.08756 30002 ft 377 kts 297°
2026-05-07 17:55 48.58540 13.05279 29733 ft 376 kts 297°
2026-05-07 17:55 48.59777 13.01801 29469 ft 376 kts 297°
2026-05-07 17:55 48.61011 12.98326 29198 ft 377 kts 297°
2026-05-07 17:55 48.62238 12.94867 28918 ft 377 kts 297°
2026-05-07 17:56 48.63470 12.91389 28390 ft 378 kts 297°
2026-05-07 17:56 48.64711 12.87917 27846 ft 379 kts 300°
2026-05-07 17:56 48.66280 12.84703 27297 ft 380 kts 309°
2026-05-07 17:56 48.68039 12.81742 26756 ft 382 kts 311°
2026-05-07 17:57 48.69817 12.78803 26216 ft 383 kts 311°
2026-05-07 17:57 48.71018 12.76796 25852 ft 384 kts 311°
2026-05-07 17:57 48.73373 12.72807 25127 ft 386 kts 310°
2026-05-07 17:57 48.75146 12.69766 24571 ft 387 kts 310°
2026-05-07 17:58 48.76926 12.66692 24019 ft 388 kts 310°
2026-05-07 17:58 48.78691 12.63631 23475 ft 389 kts 310°
2026-05-07 17:58 48.80470 12.60536 22933 ft 391 kts 310°
2026-05-07 17:58 48.82236 12.57454 22396 ft 392 kts 310°
2026-05-07 17:59 48.84016 12.54341 21865 ft 392 kts 310°
2026-05-07 17:59 48.85791 12.51233 21334 ft 394 kts 310°
2026-05-07 17:59 48.87595 12.48071 20801 ft 394 kts 310°
2026-05-07 17:59 48.89366 12.44965 20278 ft 395 kts 310°
2026-05-07 18:00 48.91169 12.41801 19753 ft 396 kts 310°
2026-05-07 18:00 48.92955 12.38659 19231 ft 397 kts 309°
2026-05-07 18:00 48.94750 12.35496 18713 ft 398 kts 309°
2026-05-07 18:00 48.96586 12.32250 18188 ft 399 kts 309°
2026-05-07 18:01 48.98372 12.29096 17675 ft 400 kts 309°
2026-05-07 18:01 49.00210 12.25849 17162 ft 402 kts 309°
2026-05-07 18:01 49.02034 12.22617 16648 ft 401 kts 309°
2026-05-07 18:01 49.03811 12.19465 16140 ft 388 kts 309°
2026-05-07 18:02 49.07201 12.13441 15138 ft 365 kts 309°
2026-05-07 18:02 49.08815 12.10565 14634 ft 356 kts 309°
2026-05-07 18:02 49.10422 12.07701 14127 ft 350 kts 309°
2026-05-07 18:03 49.11990 12.04902 13618 ft 347 kts 309°
2026-05-07 18:03 49.13539 12.02133 13123 ft 344 kts 309°
2026-05-07 18:03 49.15076 11.99382 12628 ft 341 kts 309°
2026-05-07 18:03 49.16619 11.96616 12119 ft 339 kts 309°
2026-05-07 18:04 49.18145 11.93878 11611 ft 336 kts 309°
2026-05-07 18:04 49.19641 11.91192 11107 ft 331 kts 309°
2026-05-07 18:04 49.21127 11.88522 10594 ft 324 kts 309°
2026-05-07 18:04 49.22554 11.85955 10097 ft 318 kts 309°
2026-05-07 18:05 49.23981 11.83388 9593 ft 312 kts 309°
2026-05-07 18:05 49.25368 11.80886 9093 ft 307 kts 309°
2026-05-07 18:05 49.26733 11.78424 8598 ft 303 kts 309°
2026-05-07 18:05 49.28084 11.75982 8113 ft 299 kts 309°
2026-05-07 18:06 49.29406 11.73591 7616 ft 296 kts 309°
2026-05-07 18:06 49.30706 11.71238 7116 ft 281 kts 309°
2026-05-07 18:06 49.31923 11.69038 6613 ft 263 kts 309°
2026-05-07 18:06 49.33070 11.66961 6399 ft 253 kts 309°
2026-05-07 18:07 49.34207 11.64895 6273 ft 251 kts 309°
2026-05-07 18:07 49.35352 11.62813 6153 ft 259 kts 309°
2026-05-07 18:07 49.36507 11.60713 6022 ft 260 kts 309°
2026-05-07 18:07 49.37684 11.58570 5839 ft 260 kts 309°
2026-05-07 18:08 49.38843 11.56460 5637 ft 259 kts 310°
2026-05-07 18:08 49.39991 11.54368 5437 ft 258 kts 310°
2026-05-07 18:08 49.41152 11.52251 5223 ft 254 kts 310°
2026-05-07 18:08 49.42267 11.50218 5029 ft 244 kts 310°
2026-05-07 18:09 49.43338 11.48265 4812 ft 236 kts 310°
2026-05-07 18:09 49.44382 11.46357 4480 ft 234 kts 311°
2026-05-07 18:09 49.45429 11.44441 4179 ft 232 kts 309°
2026-05-07 18:09 49.46240 11.42302 4023 ft 234 kts 292°
2026-05-07 18:10 49.46672 11.39909 3997 ft 234 kts 284°
2026-05-07 18:10 49.46976 11.37521 3977 ft 220 kts 282°
2026-05-07 18:10 49.47214 11.35255 3968 ft 205 kts 281°
2026-05-07 18:10 49.47416 11.33159 4070 ft 196 kts 280°
2026-05-07 18:11 49.47612 11.31086 3882 ft 195 kts 280°
2026-05-07 18:11 49.47740 11.29724 3694 ft 195 kts 280°
2026-05-07 18:11 49.47998 11.27009 3317 ft 189 kts 281°
2026-05-07 18:11 49.48184 11.25072 3085 ft 181 kts 280°
2026-05-07 18:12 49.48361 11.23231 2834 ft 165 kts 280°
2026-05-07 18:12 49.48515 11.21588 2584 ft 149 kts 278°
2026-05-07 18:12 49.48635 11.20057 2396 ft 140 kts 279°
2026-05-07 18:12 49.48799 11.18609 2274 ft 139 kts 281°
2026-05-07 18:13 49.48948 11.17142 2157 ft 139 kts 279°
2026-05-07 18:13 49.49093 11.15642 1997 ft 140 kts 279°
2026-05-07 18:13 49.49242 11.14176 1743 ft 136 kts 279°
2026-05-07 18:13 49.49378 11.12767 1496 ft 131 kts 278°
2026-05-07 18:14 49.49510 11.11435 1306 ft 124 kts 279°
2026-05-07 18:14 49.49642 11.10133 1143 ft 123 kts 278°
2026-05-07 18:14 49.49765 11.08870 1052 ft 113 kts 278°
2026-05-07 18:14 49.49862 11.07880 1051 ft 68 kts 278°
2026-05-07 18:15 49.49912 11.07382 1051 ft 42 kts 278°
2026-05-07 18:15 49.49937 11.07110 1051 ft 15 kts 277°
2026-05-07 18:15 49.49917 11.07014 1051 ft 10 kts 204°
2026-05-07 18:15 49.49842 11.07034 1051 ft 11 kts 161°
2026-05-07 18:16 49.49774 11.07076 1051 ft 8 kts 153°
2026-05-07 18:16 49.49741 11.07150 1051 ft 8 kts 102°
2026-05-07 18:16 49.49739 11.07168 1051 ft 0 kts 98°
2026-05-07 18:16 49.49737 11.07188 1051 ft 5 kts 98°
2026-05-07 18:17 49.49728 11.07291 1051 ft 13 kts 98°
2026-05-07 18:17 49.49711 11.07468 1051 ft 19 kts 98°
2026-05-07 18:17 49.49690 11.07677 1051 ft 14 kts 98°
2026-05-07 18:17 49.49662 11.07768 1051 ft 6 kts 163°
2026-05-07 18:18 49.49614 11.07759 1051 ft 8 kts 201°
2026-05-07 18:18 49.49570 11.07734 1051 ft 3 kts 189°
2026-05-07 18:18 49.49543 11.07728 1051 ft 2 kts 188°
2026-05-07 18:18 49.49530 11.07726 1051 ft 0 kts 188°
2026-05-07 18:19 49.49525 11.07725 1051 ft 0 kts 188°